This is the latest recevied weather packets stored in our database for station/object K0CVS. If no packets are shown the sender has not sent any weather packets the latest 10 day(s).
| Time | Temp. | Humidity | Pressure | Rain* | Wind** | Luminosity | Snow |
|---|---|---|---|---|---|---|---|
| 1777920017 | 27.22° C | 41% | 1002.9 hPa | 0 mm | - | 726 W/m² | - |
| 1777919715 | 27.22° C | 39% | 1003.1 hPa | 0 mm | - | 676 W/m² | - |
| 1777919413 | 27.22° C | 40% | 1003.1 hPa | 0 mm | - | 756 W/m² | - |
| 1777919109 | 27.22° C | 39% | 1003.2 hPa | 0 mm | - | 751 W/m² | - |
| 1777918807 | 27.22° C | 41% | 1003.2 hPa | 0 mm | - | 729 W/m² | - |
| 1777918503 | 26.67° C | 41% | 1003.2 hPa | 0 mm | - | 752 W/m² | - |
| 1777918202 | 26.67° C | 40% | 1003.5 hPa | 0 mm | - | 703 W/m² | - |
| 1777917901 | 26.67° C | 41% | 1003.3 hPa | 0 mm | - | 748 W/m² | - |
| 1777917599 | 26.67° C | 41% | 1003.5 hPa | 0 mm | - | 750 W/m² | - |
| 1777917295 | 26.67° C | 42% | 1003.5 hPa | 0 mm | - | 746 W/m² | - |
| 1777916993 | 26.67° C | 39% | 1003.5 hPa | 0 mm | - | 743 W/m² | - |
| 1777916690 | 26.67° C | 41% | 1003.6 hPa | 0 mm | - | 748 W/m² | - |
| 1777916388 | 26.11° C | 41% | 1003.5 hPa | 0 mm | - | 743 W/m² | - |
| 1777916083 | 26.11° C | 41% | 1003.6 hPa | 0 mm | - | 740 W/m² | - |
| 1777915782 | 25.56° C | 45% | 1003.6 hPa | 0 mm | - | 737 W/m² | - |
| 1777915477 | 25.56° C | 46% | 1003.9 hPa | 0 mm | - | 734 W/m² | - |
| 1777915174 | 26.11° C | 44% | 1003.9 hPa | 0 mm | - | 727 W/m² | - |
| 1777914871 | 25.56° C | 44% | 1003.8 hPa | 0 mm | - | 723 W/m² | - |
| 1777914568 | 25.56° C | 43% | 1004 hPa | 0 mm | - | 719 W/m² | - |
| 1777914264 | 25.56° C | 43% | 1003.8 hPa | 0 mm | - | 711 W/m² | - |
| 1777913961 | 25.56° C | 42% | 1003.7 hPa | 0 mm | - | 707 W/m² | - |
| 1777913658 | 25.56° C | 42% | 1003.8 hPa | 0 mm | - | 701 W/m² | - |
| 1777913354 | 25.56° C | 42% | 1003.8 hPa | 0 mm | - | 694 W/m² | - |
| 1777913051 | 25° C | 44% | 1003.7 hPa | 0 mm | - | 684 W/m² | - |
| 1777912747 | 25° C | 43% | 1004 hPa | 0 mm | - | 675 W/m² | - |
* Rain latest hour (hover to see other rain measurements)
** Current wind speed in m/s (hover to see current wind gust speed)